TimePST,TemperatureF,Dew PointF,Humidity,Sea Level PressureIn,VisibilityMPH,Wind Direction,Wind SpeedMPH,Gust SpeedMPH,PrecipitationIn,Events,Conditions,WindDirDegrees,DateUTC
12:56 AM,34.0,24.1,67,30.10,10.0,East,3.5,-,N/A,,Mostly Cloudy,90,2013-01-07 08:56:00
1:56 AM,35.1,23.0,61,30.10,10.0,Calm,Calm,-,N/A,,Overcast,0,2013-01-07 09:56:00
2:56 AM,36.0,23.0,59,30.09,10.0,Calm,Calm,-,N/A,,Overcast,0,2013-01-07 10:56:00
3:56 AM,37.0,21.9,54,30.08,10.0,SSE,4.6,-,N/A,,Overcast,150,2013-01-07 11:56:00
4:56 AM,37.0,21.9,54,30.06,10.0,Variable,4.6,-,N/A,,Overcast,0,2013-01-07 12:56:00
5:56 AM,36.0,24.1,62,30.05,10.0,Variable,5.8,-,N/A,,Overcast,0,2013-01-07 13:56:00
6:56 AM,37.9,25.0,60,30.02,10.0,South,21.9,28.8,N/A,,Overcast,180,2013-01-07 14:56:00
7:56 AM,34.0,27.0,75,30.01,10.0,SE,18.4,26.5,N/A,,Overcast,140,2013-01-07 15:56:00
8:56 AM,36.0,28.0,73,30.02,2.0,South,20.7,-,0.00,Snow,Light Snow,170,2013-01-07 16:56:00
9:05 AM,35.6,28.4,75,29.98,1.8,SSE,15.0,24.2,0.00,Snow,Light Snow,160,2013-01-07 17:05:00
9:16 AM,35.6,28.4,75,29.98,2.5,SSE,15.0,21.9,0.00,Snow,Light Snow,160,2013-01-07 17:16:00
9:35 AM,35.6,28.4,75,29.97,1.2,South,19.6,32.2,0.01,Snow,Light Snow,180,2013-01-07 17:35:00
9:56 AM,35.1,30.0,82,30.01,1.5,South,19.6,28.8,0.01,Snow,Light Snow,180,2013-01-07 17:56:00
10:06 AM,35.6,30.2,81,29.98,1.2,South,17.3,-,0.01,Snow,Light Snow,180,2013-01-07 18:06:00
10:19 AM,33.8,30.2,87,29.97,0.8,South,17.3,-,0.02,Snow,Light Snow,180,2013-01-07 18:19:00
10:33 AM,35.6,30.2,81,29.97,1.5,South,20.7,28.8,N/A,Snow,Light Snow,180,2013-01-07 18:33:00
10:41 AM,35.6,28.4,75,29.97,2.0,South,19.6,28.8,0.03,Snow,Light Snow,180,2013-01-07 18:41:00
10:56 AM,36.0,28.9,76,29.99,4.0,South,21.9,26.5,0.03,Snow,Light Snow,170,2013-01-07 18:56:00
11:13 AM,37.4,28.4,70,29.95,10.0,South,18.4,28.8,0.01,,Overcast,190,2013-01-07 19:13:00
11:35 AM,37.4,28.4,70,29.92,10.0,South,24.2,34.5,0.01,,Overcast,180,2013-01-07 19:35:00
11:56 AM,37.9,28.0,68,29.94,10.0,South,23.0,33.4,0.01,,Overcast,180,2013-01-07 19:56:00
12:56 PM,39.0,28.0,65,29.93,10.0,South,27.6,40.3,N/A,,Overcast,180,2013-01-07 20:56:00
1:56 PM,41.0,30.0,65,29.94,10.0,South,23.0,32.2,N/A,,Mostly Cloudy,180,2013-01-07 21:56:00
2:56 PM,42.1,30.9,65,29.95,10.0,South,25.3,29.9,N/A,,Partly Cloudy,180,2013-01-07 22:56:00
3:56 PM,43.0,30.9,62,29.96,10.0,South,19.6,28.8,N/A,,Overcast,180,2013-01-07 23:56:00
4:56 PM,43.0,30.9,62,29.96,10.0,South,21.9,29.9,N/A,,Clear,180,2013-01-08 00:56:00
5:56 PM,44.1,32.0,63,29.98,10.0,South,13.8,23.0,N/A,,Clear,170,2013-01-08 01:56:00
6:56 PM,45.0,32.0,60,29.97,10.0,South,16.1,27.6,N/A,,Clear,180,2013-01-08 02:56:00
7:56 PM,44.1,32.0,63,29.98,10.0,SSE,13.8,20.7,N/A,,Clear,160,2013-01-08 03:56:00
8:56 PM,44.1,30.9,60,29.99,10.0,South,12.7,-,N/A,,Clear,180,2013-01-08 04:56:00
9:56 PM,44.6,30.2,57,29.99,10.0,South,11.5,-,N/A,,Clear,180,2013-01-08 05:56:00
10:56 PM,44.1,30.0,58,30.05,10.0,South,13.8,-,N/A,,Clear,180,2013-01-08 06:56:00
11:56 PM,44.1,30.0,58,30.08,10.0,SSE,17.3,-,N/A,,Mostly Cloudy,160,2013-01-08 07:56:00